Location: Newark
(35.6799°N, 139.7636°E)
Time: 11:47:12
(UTC+00:00)

Vanguard 3 - Pass Details

Date: 19 December 2019
Orbit: 507 x 3263 km, 33.4° (Epoch: 21 January)

Event Time Altitude Azimuth Distance (km) Brightness Sun altitude
Exits shadow 20:36:11 12° 247° (WSW) 1,904 8.6 -13.8°
Maximum altitude 20:40:20 63° 167° (SSE) 930 7.6 -13.0°
Drops below altitude 10° 20:47:45 10° 88° (E) 3,290 11.4 -11.6°
Sets 20:51:38 0° 86° (E) 4,727 12.4 -10.8°
